Location: Croisilles
(50.1998°N, 2.8793°E)
Time: 21:06:14
(UTC+00:00)

Cosmos 1844 Rocket - Pass Details

Date: 21 January 2021
Orbit: 826 x 843 km, 71.0° (Epoch: 02 March)

Event Time Altitude Azimuth Distance (km) Brightness Sun altitude
Rises 19:35:06 0° 235° (SW) 3,393 6.5 -30.1°
Reaches altitude 10° 19:37:44 10° 244° (WSW) 2,460 5.8 -30.6°
Maximum altitude 19:42:57 37° 311° (NW) 1,283 3.9 -31.4°
Enters shadow 19:44:37 31° 347° (NNW) 1,449 4.0 -31.7°
